Simultaneous Nadir Overpasses (SNOs) Predictions

Prediction of SNOs between GOES-14 and AQUA Satellite Orbit:

Table of predicted SNOs for the next 14.0 days since TLE Epoch: 10/17/2020
Index Date Time (GOES-14) GOES-14 Lat,Lon AQUA Lat,Lon Distance(km) Time Diff (sec)
1 10/18/2020 08:20:47 0.20,-104.38 -0.40,-101.71 304.88 80
2 10/18/2020 20:42:10 -0.17,-104.30 -0.74,-106.89 294.42 80
3 10/20/2020 20:32:38 -0.17,-104.30 -0.08,-103.94 41.81 80
4 10/22/2020 20:20:25 -0.17,-104.30 0.52,-100.97 378.18 80
5 10/23/2020 08:41:42 0.15,-104.40 0.50,-106.15 198.28 80
6 10/25/2020 08:26:49 0.15,-104.39 -0.10,-103.18 137.76 80
7 10/25/2020 20:48:11 -0.12,-104.27 -1.02,-108.36 465.87 80
8 10/27/2020 08:14:36 0.15,-104.39 -0.71,-100.22 474.36 80
9 10/27/2020 20:35:59 -0.13,-104.28 -0.35,-105.41 128.53 80
10 10/29/2020 20:26:27 -0.13,-104.29 0.27,-102.45 208.92 80
11 10/30/2020 08:47:43 0.10,-104.43 0.76,-107.62 362.88 80
